Location: Dw�r Pr?dzew
(52.1167°N, 19.2500°E)
Time: 17:53:20
(UTC+00:00)

Daily predictions for brighter satellites

Satellite Brightness Start Highest point End
(mag) Time Altitude Azimuth Time Altitude Azimuth Time Altitude Azimuth
BREEZE-M DEB (TANK) 3.8 18:56:25 10° SW 19:00:03 45° SE 19:11:48 10° ENE
USA 229 DEB 4.2 18:54:40 10° NW 19:01:46 62° NE 19:09:21 10° ESE
USA 229 4.2 18:54:46 10° NW 19:01:52 62° NE 19:09:26 10° ESE
ERS-2 2.3 19:02:22 10° NNE 19:05:57 51° ESE 19:09:29 10° S
COSMOS 2428 3.5 19:00:34 10° NNW 19:05:57 40° NE 19:11:16 10° ESE
Cosmos 1633 4.5 19:03:14 10° SW 19:06:33 34° WNW 19:09:54 10° N
GEOS 3 Rocket 3.7 19:03:57 10° NE 19:09:07 58° SE 19:14:10 10° SSW
COSMOS 2455 3.8 19:05:21 10° SSE 19:10:10 26° ESE 19:15:00 10° NE
Cosmos 1515 Rocket 4.4 19:06:05 10° N 19:10:12 36° ENE 19:14:14 10° SE
COSMOS 2487 4.4 19:12:52 10° SE 19:14:27 13° E 19:16:02 10° ENE
Meteor 2-3 Rocket 3.9 19:10:18 10° SSW 19:16:01 88° WNW 19:21:51 10° NNE
ATLAS 2AS CENTAUR R/B 4.2 19:08:41 10° W 19:16:15 47° NNW 19:23:30 10° NE
Cosmos 292 Rocket 3.8 19:11:36 10° NNW 19:16:23 70° ENE 19:21:11 10° SSE
Cosmos 2360 Rocket 2.3 19:10:47 10° NNW 19:16:28 80° WSW 19:22:05 10° SSE
SAR-Lupe-4 4.0 19:13:10 10° N 19:16:45 69° WNW 19:20:19 10° SSW
Cosmos 2082 Rocket 4.2 19:11:55 10° WSW 19:17:04 35° NW 19:22:17 10° NNE
NOSS 2-1 (C) 3.0 19:15:24 10° SSW 19:18:34 50° SE 19:21:55 10° NE
Ariane Rocket 3.7 19:14:19 10° S 19:19:17 56° W 19:24:18 10° NNW
Cosmos 1328 Rocket 3.6 19:15:00 10° N 19:19:26 71° ENE 19:23:50 10° SSE
Terra 3.1 19:15:59 10° ESE 19:19:57 27° ENE 19:23:56 10° N
Cosmos 2084 Rocket 4.3 19:17:32 10° NW 19:21:27 40° NNE 19:25:31 10° ESE
NOSS 3-1 (A) 4.2 19:15:16 10° NW 19:22:24 74° NE 19:30:51 10° SE
Cosmos 1174 3.5 19:20:59 10° NW 19:23:57 55° SW 19:26:56 10° SSE
SPOT 3 Rocket 3.7 19:20:41 10° SSE 19:25:55 84° WSW 19:31:11 10° NNW
NOSS 2-1 (D) 2.8 19:23:08 10° SSW 19:26:21 60° SE 19:29:47 10° NE
Cosmos 1766 Rocket 3.5 19:23:08 10° S 19:27:28 69° E 19:31:49 10° NNE
Meteor 2-6 Rocket 4.1 19:22:57 10° N 19:28:22 75° ENE 19:33:46 10° SSE
Cosmos 1624 Rocket 4.3 19:23:12 10° NNW 19:28:23 66° WSW 19:33:33 10° S
Cosmos 2151 4.3 19:25:35 10° SSW 19:29:41 45° WNW 19:33:50 10° N
Cosmos 1553 Rocket 4.0 19:24:54 10° N 19:31:01 78° ENE 19:37:09 10° SSE
Cosmos 2084 3.4 19:28:27 10° SW 19:32:33 83° NW 19:36:47 10° NE
Cosmos 1420 Rocket 4.1 19:28:07 10° NNW 19:33:29 85° WSW 19:38:48 10° SSE
Resurs 01 Rocket 2.3 19:29:32 10° S 19:33:55 56° W 19:38:19 10° NNW
Cosmos 1812 2.8 19:36:00 10° NNW 19:39:52 79° W 19:43:43 10° S
Cosmos 1782 4.1 19:38:10 10° NNW 19:41:57 40° W 19:45:41 10° SSW
Cosmos 2285 Rocket 4.3 19:36:30 10° NNW 19:42:45 60° ENE 19:48:12 14° SE
Meteor 2-21 4.5 19:37:32 10° S 19:43:38 69° E 19:49:44 10° NNE
ERS-1 Rocket 3.2 19:40:14 13° SE 19:44:40 56° ENE 19:49:35 10° N
Cosmos 1862 3.3 19:41:34 10° S 19:45:30 65° E 19:49:26 10° NNE
Cosmos 2228 Rocket 4.0 19:42:09 10° N 19:46:14 35° ENE 19:49:24 15° SE
NOSS 0 Rocket 4.5 19:42:31 10° NNW 19:48:36 50° NE 19:53:53 14° ESE
Cosmos 1833 4.2 19:43:47 10° SSW 19:49:30 68° ESE 19:55:15 10° NE
SL-27 R/B 2.5 19:46:38 10° SSW 19:50:14 84° WNW 19:53:52 10° NNE
Cosmos 2297 Rocket 4.1 19:50:08 10° E 19:50:53 10° E 19:51:39 10° E
Cosmos 2333 Rocket 2.2 19:45:59 10° NNW 19:51:41 84° WSW 19:56:33 14° SSE
ATLAS CENTAUR R/B 4.5 19:45:55 10° WNW 19:53:13 87° SSW 20:11:58 12° SE
Cosmos 2322 Rocket 3.8 19:48:28 10° NW 19:53:14 29° WSW 19:57:59 10° SSW
JB-3 4.3 19:49:42 10° NNE 19:53:49 68° ESE 19:57:49 10° S
Cosmos 2237 Rocket 3.2 19:48:42 10° NNW 19:53:58 37° NE 19:58:46 12° ESE
BREEZE-M DEB (TANK) 4.4 19:51:31 10° WSW 19:54:16 20° SSW 19:58:29 12° SSE
Cosmos 2322 3.8 19:48:57 10° NNW 19:54:43 84° WSW 19:59:33 15° SSE
USA 234 3.9 19:48:50 10° ENE 19:55:15 59° N 20:01:40 10° WNW
SPOT 5 2.7 19:52:44 15° SSE 19:56:17 66° ENE 20:00:50 10° N
ARIANE 5 R/B 2.6 19:54:19 14° SSE 19:58:05 81° ENE 20:02:31 10° NNW
Cosmos 1452 Rocket 3.5 19:54:41 10° NNW 19:59:59 86° ENE 20:04:09 17° SSE
BREEZE-M R/B 3.8 19:59:13 10° SSW 20:02:17 19° SSE 20:02:47 19° SE
S3M 4.1 19:59:07 10° N 20:05:34 89° W 20:11:31 12° S
Cosmos 2219 Rocket 2.2 20:00:12 10° NNW 20:05:49 80° WSW 20:10:11 17° SSE
Cosmos 1500 Rocket 3.8 20:03:07 15° SSE 20:06:35 51° E 20:10:56 10° NNE
ATLAS 5 CENTAUR R/B 2.3 20:07:05 10° NW 20:12:28 77° SW 20:17:08 19° SE
Meteor 2-16 Rocket 4.4 20:06:31 10° S 20:12:34 73° E 20:18:40 10° NNE
Meteor 1-27 Rocket 3.8 20:08:42 10° NNW 20:14:26 84° ENE 20:18:59 17° SSE
Cosmos 1331 Rocket 4.2 20:10:46 10° NNW 20:15:58 61° ENE 20:19:26 21° SE
Cosmos 1110 Rocket 4.1 20:12:01 10° NNW 20:17:21 68° ENE 20:20:54 21° SE
Sich 1 4.0 20:16:32 22° SE 20:18:26 31° E 20:22:14 10° NNE
Spot 2 Rocket 3.9 20:14:03 12° S 20:18:40 60° WSW 20:23:44 10° NNW
USA 245 4.4 20:16:53 10° S 20:20:48 36° W 20:24:00 10° NNW
NOSS 2-2 (C) 4.5 20:17:07 10° NW 20:21:54 63° NE 20:27:02 17° ESE
Cosmos 1408 Rocket 3.8 20:17:47 10° SSW 20:22:06 68° WNW 20:26:25 10° N
CZ-2C R/B 4.1 20:19:58 10° N 20:24:26 62° WNW 20:28:48 10° SSW
NOSS 2-1 (E) 4.0 20:21:31 10° WSW 20:24:43 48° NW 20:28:18 10° NE
Cosmos 1655 Rocket 4.0 20:19:31 10° S 20:25:55 86° E 20:32:22 10° N
SL-16 R/B 3.7 20:21:20 10° NNW 20:26:12 28° NE 20:31:03 10° E
USA 102 3.5 20:26:31 41° ESE 20:27:50 65° NE 20:35:25 10° NNW
Cosmos 1743 Rocket 3.5 20:25:39 16° S 20:29:10 81° E 20:33:35 10° NNE
Cosmos 494 Rocket 4.2 20:31:20 19° S 20:34:43 50° ESE 20:39:42 10° NNE
Cosmos 1633 Rocket 4.4 20:33:47 21° ESE 20:35:00 24° E 20:38:28 10° NE
IRIDIUM 104 4.3 20:30:27 10° N 20:35:42 72° E 20:38:56 24° SSE
Lacrosse 5 2.5 20:33:37 14° S 20:37:21 33° SE 20:41:51 10° ENE
IRIDIUM 114 4.3 20:39:35 10° N 20:44:51 84° E 20:48:03 24° S
Cosmos 1666 Rocket 4.4 20:44:01 27° SE 20:45:30 35° E 20:49:35 10° NNE
CZ-4C R/B 3.6 20:41:25 10° NW 20:47:49 49° NNE 20:55:28 10° ESE
COSMOS 2487 2.9 20:45:40 11° SW 20:48:47 57° WNW 20:52:10 10° NNE
Cosmos 1602 4.1 20:47:47 35° SE 20:48:54 46° E 20:52:36 10° NNE
COSMOS 2428 3.3 20:44:54 10° NW 20:50:23 49° WSW 20:53:52 21° S
CZ-4B DEB 4.4 20:50:28 38° SSW 20:51:28 64° WSW 20:54:37 10° NNW
Cosmos 468 4.4 20:47:13 13° SSW 20:51:54 81° ESE 20:57:10 10° NNE
USA 229 DEB 4.4 20:45:47 10° NW 20:52:45 49° WSW 20:57:36 22° S
USA 229 4.4 20:45:53 10° NW 20:52:51 49° WSW 20:57:42 22° S
IRIDIUM 103 4.3 20:48:45 10° N 20:54:00 83° W 20:57:11 24° S
Meteor 1-25 Rocket 4.2 20:51:22 25° S 20:54:36 63° E 21:00:07 10° NNE
COSMOS 2455 3.0 20:49:31 10° SW 20:55:33 77° NW 21:01:37 10° NE
Meteor 2-4 Rocket 4.4 20:49:53 10° N 20:55:35 46° ENE 20:58:42 25° SE
Terra 2.4 20:54:30 21° SSW 20:57:28 51° W 21:02:08 10° NNW
COBE Rocket 4.1 20:57:21 30° SE 20:59:27 55° ENE 21:04:09 10° N
Cosmos 2360 Rocket 4.5 20:56:21 10° WNW 20:59:34 16° W 21:02:46 10° SW
Cosmos 2084 Rocket 4.0 20:56:59 10° NW 21:00:59 45° SW 21:02:26 32° S
USA 267 4.5 20:56:34 10° E 21:00:52 20° ESE 21:00:52 20° ESE
Meteor 1-18 Rocket 4.3 20:58:04 10° N 21:03:53 71° ENE 21:06:50 30° SSE
Cosmos 1048 Rocket 4.0 20:59:48 11° SSW 21:04:42 80° WNW 21:09:52 10° NNE
Cosmos 1862 Rocket 3.8 21:02:24 10° N 21:06:42 55° ENE 21:08:11 36° SE
Cosmos 972 Rocket 4.3 21:02:28 10° SSW 21:07:33 63° WNW 21:12:27 10° NNE
Cosmos 2219 4.0 21:06:24 28° SE 21:07:59 33° ESE 21:13:03 10° NE
USA 102 4.3 21:08:33 34° WSW 21:09:25 37° W 21:16:24 10° NW
Cosmos 489 Rocket 4.5 21:06:25 12° SSW 21:12:23 88° WNW 21:18:49 10° NNE
Cosmos 1707 Rocket 3.6 21:10:34 10° NNW 21:14:56 75° W 21:16:40 36° S
Cosmos 1302 Rocket 3.9 21:09:44 10° NNW 21:15:00 90° WSW 21:17:19 34° SSE
Spot 4 4.1 21:13:02 33° SE 21:15:04 59° ENE 21:19:51 10° N
H-2A R/B 3.4 21:10:53 10° NNE 21:15:08 87° WNW 21:17:03 32° SSW
Meteor 1-19 Rocket 4.1 21:10:15 10° NNW 21:15:51 83° W 21:18:31 32° S
Okean 1 3.3 21:12:05 10° NNW 21:16:06 80° W 21:17:20 43° S
TSX-5 4.1 21:15:29 39° S 21:16:51 59° ESE 21:21:55 10° NE
Cosmos 1980 3.8 21:11:17 10° NW 21:16:57 71° WSW 21:19:35 32° SSE
NOSS 2-2 (D) 4.3 21:14:02 10° NW 21:19:06 70° SW 21:22:28 30° SSE
Cosmos 1500 3.2 21:24:25 52° SSE 21:25:10 67° E 21:29:00 10° NNE
Cosmos 1378 4.3 21:25:24 10° N 21:28:45 31° ENE 21:29:25 29° E
Okean 1-7 3.9 21:27:33 10° N 21:31:32 36° ENE 21:32:43 30° ESE
Cosmos 1269 Rocket 4.1 21:30:11 37° SSE 21:32:03 57° ESE 21:37:14 10° NNE
Cosmos 2297 Rocket 2.3 21:31:26 34° S 21:33:43 57° ESE 21:39:16 10° NE
Cosmos 2333 Rocket 4.3 21:31:39 10° WNW 21:35:06 17° W 21:38:33 10° SW
BREEZE-M DEB (TANK) 4.0 21:32:26 10° W 21:34:36 17° WSW 21:34:36 17° WSW
USA 234 3.4 21:31:27 10° ESE 21:37:58 75° NNE 21:44:32 10° WNW
Cosmos 2237 Rocket 2.6 21:32:44 10° NW 21:38:17 54° WSW 21:40:34 33° S
Cosmos 2227 Rocket 2.3 21:44:50 38° SSE 21:46:42 55° ESE 21:52:14 10° NE
ALOS 2 2.7 21:45:45 45° SE 21:46:58 67° ENE 21:51:21 10° N
Cosmos 2219 Rocket 4.3 21:45:43 10° WNW 21:48:53 16° W 21:51:54 10° SW
Cosmos 2263 Rocket 4.1 21:51:47 14° ESE 21:52:34 14° E 21:55:25 10° ENE
Cosmos 1745 Rocket 4.0 21:50:35 35° S 21:53:21 72° E 21:59:40 10° NNE
Meteor 1-14 Rocket 4.2 21:51:39 36° S 21:54:02 85° ESE 21:59:48 10° NNE
Sich 1 4.5 21:53:27 18° SW 21:56:04 33° WNW 21:59:59 10° N
ATLAS 5 CENTAUR R/B 4.0 21:52:34 10° WNW 21:56:39 20° WSW 21:58:39 17° SW
BREEZE-M DEB (TANK) 4.3 21:49:51 10° WSW 22:00:37 44° S 22:02:13 34° SE
Nadezhda 1 Rocket 4.1 21:57:25 10° NNW 22:03:50 75° W 22:06:40 35° S
Cosmos 1536 3.7 22:05:02 34° E 22:05:18 34° E 22:08:59 10° NNE
Okean 3 4.0 22:04:13 10° N 22:08:22 49° ENE 22:09:16 41° ESE
Cosmos 1869 Rocket 4.4 22:09:57 35° ESE 22:10:37 37° E 22:14:44 10° NNE
SL-16 R/B 2.1 22:05:15 10° NNW 22:10:56 78° WSW 22:12:56 42° SSE
Cosmos 44 3.4 22:05:45 10° NW 22:11:06 83° NE 22:13:02 39° SE
Cosmos 1633 Rocket 3.9 22:10:51 29° SW 22:12:33 43° WNW 22:16:44 10° N
Cosmos 1470 Rocket 3.7 22:14:08 46° SW 22:15:15 66° WNW 22:19:35 10° N
Cosmos 1666 2.9 22:15:50 54° WSW 22:16:25 63° WNW 22:20:15 10° N
Lacrosse 5 1.9 22:14:55 10° WSW 22:20:00 81° NNW 22:25:07 10° ENE
Cosmos 1933 Rocket 3.5 22:20:15 55° SSW 22:21:13 86° W 22:25:42 10° N
Cosmos 192 4.2 22:18:16 10° NNW 22:23:14 88° WSW 22:24:35 49° SSE
Timation 1 Rocket 4.3 22:21:27 37° SSW 22:23:57 79° ESE 22:29:59 10° NE
Cosmos 1743 3.6 22:28:33 35° E 22:28:37 35° E 22:32:07 10° NNE
Cosmos 1340 Rocket 2.9 22:28:39 58° SW 22:29:13 68° WNW 22:33:11 10° N
Cosmos 1818 4.5 22:26:24 10° NW 22:31:44 47° NE 22:36:44 11° ESE
Cosmos 2251 Rocket 3.7 22:34:43 45° SSE 22:35:59 57° ESE 22:41:14 10° NNE
CZ-4C R/B 2.9 22:29:52 10° NW 22:36:54 72° SW 22:41:11 31° SSE
Resurs 1-4 Rocket 4.5 22:37:32 10° ENE 22:38:42 11° E 22:39:51 10° E
Cosmos 1943 3.7 22:33:38 10° NNW 22:39:16 56° NE 22:42:42 23° ESE
CZ-3B R/B 4.2 22:36:24 10° WNW 22:39:48 16° WSW 22:39:48 16° WSW
Timation 2 Rocket 3.9 22:39:27 34° SSW 22:42:18 88° WNW 22:48:35 10° NNE
Cosmos 2242 Rocket 4.1 22:39:31 10° NNW 22:43:48 48° W 22:44:34 43° SW
ATLAS CENTAUR R/B 2.7 22:44:53 26° E 22:44:53 26° E 22:47:33 10° ENE
Cosmos 1544 2.9 22:44:14 88° ENE 22:44:14 88° ENE 22:47:50 10° N
USA 267 3.3 22:38:42 10° ENE 22:45:10 59° SE 22:48:10 32° SSW
SAR-Lupe-2 3.8 22:42:38 10° NNE 22:46:07 58° E 22:46:07 58° E
Cosmos 2219 3.8 22:48:17 22° WSW 22:51:54 56° NW 22:57:36 10° NNE
NOSS 3-4 (A) 4.2 22:45:59 10° NW 22:52:37 61° NE 23:00:05 10° ESE
NOSS 3-4 (C) 4.2 22:46:05 10° NW 22:52:43 61° NE 23:00:12 10° ESE
Cosmos 1066 Rocket 4.5 22:47:42 10° NNW 22:53:30 60° W 22:55:26 40° SSW
Cosmos 407 Rocket 4.2 22:54:30 34° SE 22:55:38 39° ESE 23:00:27 10° NE
ATLAS 2AS CENTAUR R/B 3.8 22:54:19 10° NW 23:01:37 48° NNE 23:08:23 10° E
Cosmos 2082 3.7 23:01:12 37° SW 23:03:35 83° WNW 23:09:22 10° NNE
NOSS 3-3 (A) 4.2 23:02:54 40° SSE 23:04:30 50° ESE 23:10:52 10° NE
NOSS 3-3 (C) 4.2 23:03:01 39° SSE 23:04:37 49° ESE 23:10:57 10° NE
Cosmos 1707 4.3 23:03:18 10° N 23:06:41 29° ENE 23:07:54 24° ESE
Meteor 1-11 Rocket 3.8 23:05:19 38° SW 23:07:23 65° WNW 23:12:56 10° N
Okean 1-7 4.3 23:05:21 10° NNW 23:08:58 27° W 23:09:33 26° WSW
Cosmos 2181 Rocket 4.1 23:04:12 10° NNW 23:10:25 64° W 23:12:46 38° SSW
Cosmos 1733 Rocket 3.5 23:09:45 43° SE 23:10:38 50° E 23:14:57 10° NNE
Cosmos 1975 3.8 23:12:19 33° ESE 23:12:58 35° E 23:16:43 10° NNE
Geosat 4.0 23:13:04 34° SE 23:15:19 81° NE 23:20:23 10° NNW
Cosmos 1140 Rocket 3.8 23:16:10 41° SSE 23:17:33 53° ESE 23:22:38 10° NNE
Cosmos 2297 Rocket 3.5 23:13:12 11° WSW 23:18:04 35° NW 23:23:16 10° NNE
Cosmos 2221 Rocket 3.6 23:16:06 10° NNW 23:20:42 80° W 23:21:41 55° S
SL-16 R/B 3.5 23:15:36 12° SE 23:20:52 42° ENE 23:26:40 10° N
USA 234 3.3 23:18:04 30° SSE 23:21:13 55° SW 23:27:39 10° WNW
ADEOS Rocket 4.2 23:20:30 10° ESE 23:25:23 34° ENE 23:30:28 10° N
Cosmos 614 Rocket 4.1 23:23:41 39° SW 23:25:38 70° WNW 23:30:53 10° NNE
Cosmos 1461 3.3 23:27:18 37° WSW 23:28:55 65° NW 23:33:16 10° NE
Cosmos 2227 Rocket 3.5 23:26:37 14° WSW 23:31:02 36° NW 23:36:16 10° NNE
Meteor 2-12 Rocket 4.4 23:29:20 38° S 23:31:53 85° E 23:38:05 10° NNE
SL-24 R/B - RUBIN 2 3.9 23:27:22 10° NW 23:32:16 49° WSW 23:32:45 47° SW
Nadezhda 3 Rocket 4.0 23:26:36 10° N 23:33:00 80° E 23:36:10 32° SSE
Cosmos 1356 Rocket 4.0 23:33:53 39° SE 23:34:35 43° E 23:38:23 10° NNE
Cosmos 2263 Rocket 2.2 23:33:28 41° S 23:35:30 73° ESE 23:41:13 10° NNE
Cosmos 2344 3.8 23:34:40 32° S 23:37:56 54° ESE 23:45:35 10° NE
Cosmos 1603 3.7 23:34:00 10° NW 23:39:34 63° WSW 23:41:31 39° S
PSLV R/B 4.1 23:36:23 10° N 23:41:04 57° WNW 23:42:34 38° SW
Cosmos 1536 4.3 23:40:44 24° W 23:41:46 27° WNW 23:45:16 10° N
Okean 2 3.3 23:37:35 10° N 23:41:48 85° E 23:42:44 53° SSE
Cosmos 1842 3.4 23:40:08 10° NNW 23:43:55 54° W 23:44:12 53° WSW
ARGOS Delta rocket 3.6 23:42:57 10° NNE 23:47:31 84° ESE 23:48:43 48° S
ASTEX 1 3.4 23:46:47 44° SSW 23:48:15 67° W 23:53:13 10° N
Thor Agena Rocket 4.1 23:45:38 10° N 23:50:29 48° WNW 23:52:34 30° WSW
NOSS 7 (E) 4.5 23:48:02 10° NW 23:51:21 85° SW 23:52:26 46° SE
Meteor 2-9 Rocket 4.1 23:50:41 40° SSW 23:52:44 87° WNW 23:58:16 10° NNE
YAOGAN 11 4.1 23:52:25 46° S 23:53:44 77° WSW 23:58:13 10° NNW
SL-16 R/B 4.0 23:51:00 10° WNW 23:54:08 15° W 23:54:47 15° WSW
